contact:dominique.lefevre@mio.osupytheas.fr, maurice.libes@osupytheas.fr, didier.mallarino@osupytheas.fr
Project:EMSO http://www.emso-fr.org/EMSO-France
Depth: 2436.0 m
Title:EMSO Ligure Ouest : Data MII capteur CSTAR
DateTime,Latitude,Longitude,Instrument_Serial,Reference_Counts,Signal_Counts,Corrected_Signal_raw_counts,Calculated_Beam_c_inverse_meters,Internal_thermistor_counts
DateTime,Latitude,Longitude,Instrument_Serial,Reference_Counts,Signal_Counts,Corrected_Signal_raw_counts,Calculated_Beam_c_inverse_meters,Internal_thermistor_counts
2021-01-12T00:01:22,42.805,6.029,CST-1368DR,5622,7866,15042,0.150,551
2021-01-12T00:04:24,42.805,6.029,CST-1368DR,5622,7866,15042,0.150,550
2021-01-12T00:07:26,42.805,6.029,CST-1368DR,5622,7865,15040,0.150,551
2021-01-12T00:10:27,42.805,6.029,CST-1368DR,5622,7866,15041,0.150,551
2021-01-12T00:13:29,42.805,6.029,CST-1368DR,5622,7866,15042,0.150,551
2021-01-12T00:16:30,42.805,6.029,CST-1368DR,5622,7865,15040,0.150,551
2021-01-12T00:19:32,42.805,6.029,CST-1368DR,5622,7861,15032,0.152,551
2021-01-12T00:22:33,42.805,6.029,CST-1368DR,5622,7866,15042,0.150,551
2021-01-12T00:25:35,42.805,6.029,CST-1368DR,5622,7864,15038,0.151,551
2021-01-12T00:28:37,42.805,6.029,CST-1368DR,5622,7865,15040,0.150,551
2021-01-12T00:31:38,42.805,6.029,CST-1368DR,5622,7866,15041,0.150,551
2021-01-12T00:34:40,42.805,6.029,CST-1368DR,5622,7866,15043,0.150,551
2021-01-12T00:37:41,42.805,6.029,CST-1368DR,5622,7866,15041,0.150,551
2021-01-12T00:40:43,42.805,6.029,CST-1368DR,5622,7864,15038,0.151,551
2021-01-12T00:43:45,42.805,6.029,CST-1368DR,5622,7866,15043,0.150,551
2021-01-12T00:46:46,42.805,6.029,CST-1368DR,5622,7865,15039,0.151,551
2021-01-12T00:49:48,42.805,6.029,CST-1368DR,5622,7864,15038,0.151,551
2021-01-12T00:52:49,42.805,6.029,CST-1368DR,5622,7865,15040,0.150,551
2021-01-12T00:55:51,42.805,6.029,CST-1368DR,5622,7866,15041,0.150,551
2021-01-12T00:58:52,42.805,6.029,CST-1368DR,5622,7864,15038,0.151,551
2021-01-12T01:01:54,42.805,6.029,CST-1368DR,5622,7866,15041,0.150,551
2021-01-12T01:04:56,42.805,6.029,CST-1368DR,5622,7865,15041,0.150,551
2021-01-12T01:07:57,42.805,6.029,CST-1368DR,5622,7866,15042,0.150,551
2021-01-12T01:10:59,42.805,6.029,CST-1368DR,5622,7865,15039,0.151,551
2021-01-12T01:14:00,42.805,6.029,CST-1368DR,5622,7865,15040,0.150,551
2021-01-12T01:17:02,42.805,6.029,CST-1368DR,5622,7866,15042,0.150,551
2021-01-12T01:20:03,42.805,6.029,CST-1368DR,5622,7863,15036,0.151,551
2021-01-12T01:23:05,42.805,6.029,CST-1368DR,5622,7865,15040,0.150,551
2021-01-12T01:26:07,42.805,6.029,CST-1368DR,5622,7865,15040,0.150,551
2021-01-12T01:29:08,42.805,6.029,CST-1368DR,5622,7865,15039,0.151,551
2021-01-12T01:32:10,42.805,6.029,CST-1368DR,5622,7866,15042,0.150,551
2021-01-12T01:35:11,42.805,6.029,CST-1368DR,5622,7865,15040,0.150,551
2021-01-12T01:38:13,42.805,6.029,CST-1368DR,5622,7866,15041,0.150,551
2021-01-12T01:41:14,42.805,6.029,CST-1368DR,5622,7865,15039,0.151,551
2021-01-12T01:44:16,42.805,6.029,CST-1368DR,5622,7865,15040,0.150,551
2021-01-12T01:47:18,42.805,6.029,CST-1368DR,5622,7865,15041,0.150,551
2021-01-12T01:50:19,42.805,6.029,CST-1368DR,5622,7866,15041,0.150,550
2021-01-12T01:53:21,42.805,6.029,CST-1368DR,5622,7866,15041,0.150,550
2021-01-12T01:56:22,42.805,6.029,CST-1368DR,5622,7863,15037,0.151,551
2021-01-12T01:59:24,42.805,6.029,CST-1368DR,5622,7866,15042,0.150,551
2021-01-12T02:02:26,42.805,6.029,CST-1368DR,5622,7866,15042,0.150,551
2021-01-12T02:05:27,42.805,6.029,CST-1368DR,5622,7865,15041,0.150,551
2021-01-12T02:08:29,42.805,6.029,CST-1368DR,5622,7864,15039,0.151,551
2021-01-12T02:11:30,42.805,6.029,CST-1368DR,5622,7864,15039,0.151,551
2021-01-12T02:14:32,42.805,6.029,CST-1368DR,5622,7865,15040,0.150,551
2021-01-12T02:17:33,42.805,6.029,CST-1368DR,5622,7862,15034,0.152,551
2021-01-12T02:20:35,42.805,6.029,CST-1368DR,5622,7866,15041,0.150,551
2021-01-12T02:23:37,42.805,6.029,CST-1368DR,5622,7865,15041,0.150,551
2021-01-12T02:26:38,42.805,6.029,CST-1368DR,5622,7866,15041,0.150,551
2021-01-12T02:29:40,42.805,6.029,CST-1368DR,5622,7865,15040,0.150,551
2021-01-12T02:32:41,42.805,6.029,CST-1368DR,5622,7865,15040,0.150,551
2021-01-12T02:35:43,42.805,6.029,CST-1368DR,5622,7865,15040,0.150,551
2021-01-12T02:38:45,42.805,6.029,CST-1368DR,5622,7866,15041,0.150,551
2021-01-12T02:41:46,42.805,6.029,CST-1368DR,5622,7864,15038,0.151,551
2021-01-12T02:44:48,42.805,6.029,CST-1368DR,5622,7864,15038,0.151,551
2021-01-12T02:47:49,42.805,6.029,CST-1368DR,5622,7865,15040,0.150,551
2021-01-12T02:50:51,42.805,6.029,CST-1368DR,5622,7864,15039,0.151,551
2021-01-12T02:53:52,42.805,6.029,CST-1368DR,5622,7862,15035,0.152,551
2021-01-12T02:56:54,42.805,6.029,CST-1368DR,5622,7865,15039,0.151,551
2021-01-12T02:59:56,42.805,6.029,CST-1368DR,5622,7864,15037,0.151,551
2021-01-12T03:02:57,42.805,6.029,CST-1368DR,5622,7864,15038,0.151,551
2021-01-12T03:05:59,42.805,6.029,CST-1368DR,5622,7863,15036,0.151,551
2021-01-12T03:09:00,42.805,6.029,CST-1368DR,5622,7864,15038,0.151,551
2021-01-12T03:12:02,42.805,6.029,CST-1368DR,5622,7865,15040,0.150,551
2021-01-12T03:15:03,42.805,6.029,CST-1368DR,5622,7864,15038,0.151,551
2021-01-12T03:18:05,42.805,6.029,CST-1368DR,5622,7865,15040,0.150,551
2021-01-12T03:21:07,42.805,6.029,CST-1368DR,5622,7862,15035,0.152,551
2021-01-12T03:24:08,42.805,6.029,CST-1368DR,5622,7865,15039,0.151,551
2021-01-12T03:27:10,42.805,6.029,CST-1368DR,5622,7864,15037,0.151,551
2021-01-12T03:30:11,42.805,6.029,CST-1368DR,5622,7865,15040,0.150,551
2021-01-12T03:33:13,42.805,6.029,CST-1368DR,5622,7865,15040,0.150,551
2021-01-12T03:36:15,42.805,6.029,CST-1368DR,5622,7864,15039,0.151,551
2021-01-12T03:39:16,42.805,6.029,CST-1368DR,5622,7866,15041,0.150,551
2021-01-12T03:42:18,42.805,6.029,CST-1368DR,5622,7866,15041,0.150,551
2021-01-12T03:45:19,42.805,6.029,CST-1368DR,5622,7864,15039,0.151,551
2021-01-12T03:48:21,42.805,6.029,CST-1368DR,5622,7864,15037,0.151,551
2021-01-12T03:51:22,42.805,6.029,CST-1368DR,5622,7861,15032,0.152,551
2021-01-12T03:54:24,42.805,6.029,CST-1368DR,5622,7864,15038,0.151,551
2021-01-12T03:57:26,42.805,6.029,CST-1368DR,5622,7863,15037,0.151,551
2021-01-12T04:00:27,42.805,6.029,CST-1368DR,5622,7865,15040,0.150,551
2021-01-12T04:03:29,42.805,6.029,CST-1368DR,5622,7865,15039,0.151,551
2021-01-12T04:06:30,42.805,6.029,CST-1368DR,5622,7865,15040,0.150,551
2021-01-12T04:09:32,42.805,6.029,CST-1368DR,5622,7864,15038,0.151,551
2021-01-12T04:12:33,42.805,6.029,CST-1368DR,5622,7864,15039,0.151,551
2021-01-12T04:15:35,42.805,6.029,CST-1368DR,5622,7865,15040,0.150,551
2021-01-12T04:18:37,42.805,6.029,CST-1368DR,5622,7865,15039,0.151,551
2021-01-12T04:21:38,42.805,6.029,CST-1368DR,5622,7864,15039,0.151,551
2021-01-12T04:24:40,42.805,6.029,CST-1368DR,5621,7864,15041,0.150,551
2021-01-12T04:27:41,42.805,6.029,CST-1368DR,5621,7862,15037,0.151,551
2021-01-12T04:30:43,42.805,6.029,CST-1368DR,5622,7864,15039,0.151,551
2021-01-12T04:33:45,42.805,6.029,CST-1368DR,5622,7864,15039,0.151,551
2021-01-12T04:36:46,42.805,6.029,CST-1368DR,5622,7864,15037,0.151,551
2021-01-12T04:39:48,42.805,6.029,CST-1368DR,5622,7862,15034,0.152,551
2021-01-12T04:42:49,42.805,6.029,CST-1368DR,5622,7864,15039,0.151,551
2021-01-12T04:45:51,42.805,6.029,CST-1368DR,5622,7864,15037,0.151,551
2021-01-12T04:48:52,42.805,6.029,CST-1368DR,5621,7863,15039,0.151,551
2021-01-12T04:51:54,42.805,6.029,CST-1368DR,5621,7862,15037,0.151,551
2021-01-12T04:54:56,42.805,6.029,CST-1368DR,5621,7856,15025,0.154,551
2021-01-12T04:57:57,42.805,6.029,CST-1368DR,5621,7860,15032,0.152,551
2021-01-12T05:00:59,42.805,6.029,CST-1368DR,5622,7864,15038,0.151,551
2021-01-12T05:04:00,42.805,6.029,CST-1368DR,5621,7864,15040,0.150,551
2021-01-12T05:07:02,42.805,6.029,CST-1368DR,5621,7862,15036,0.151,551
2021-01-12T05:10:04,42.805,6.029,CST-1368DR,5621,7864,15040,0.150,551
2021-01-12T05:13:05,42.805,6.029,CST-1368DR,5621,7863,15039,0.151,551
2021-01-12T05:16:07,42.805,6.029,CST-1368DR,5621,7864,15041,0.150,551
2021-01-12T05:19:08,42.805,6.029,CST-1368DR,5622,7864,15038,0.151,551
2021-01-12T05:22:10,42.805,6.029,CST-1368DR,5621,7863,15038,0.151,551
2021-01-12T05:25:11,42.805,6.029,CST-1368DR,5621,7862,15037,0.151,551
2021-01-12T05:28:13,42.805,6.029,CST-1368DR,5621,7862,15037,0.151,551
2021-01-12T05:31:15,42.805,6.029,CST-1368DR,5621,7864,15040,0.150,551
2021-01-12T05:34:16,42.805,6.029,CST-1368DR,5621,7864,15040,0.150,551
2021-01-12T05:37:18,42.805,6.029,CST-1368DR,5621,7864,15040,0.150,551
2021-01-12T05:40:19,42.805,6.029,CST-1368DR,5621,7863,15039,0.151,551
2021-01-12T05:43:21,42.805,6.029,CST-1368DR,5621,7862,15037,0.151,551
2021-01-12T05:46:22,42.805,6.029,CST-1368DR,5621,7863,15038,0.151,551
2021-01-12T05:49:24,42.805,6.029,CST-1368DR,5621,7862,15037,0.151,551
2021-01-12T05:52:26,42.805,6.029,CST-1368DR,5621,7863,15038,0.151,551
2021-01-12T05:55:27,42.805,6.029,CST-1368DR,5621,7863,15038,0.151,551
2021-01-12T05:58:29,42.805,6.029,CST-1368DR,5621,7864,15040,0.150,551
2021-01-12T06:01:30,42.805,6.029,CST-1368DR,5621,7863,15038,0.151,551
2021-01-12T06:04:32,42.805,6.029,CST-1368DR,5621,7863,15038,0.151,551
2021-01-12T06:07:34,42.805,6.029,CST-1368DR,5621,7864,15040,0.150,551
2021-01-12T06:10:35,42.805,6.029,CST-1368DR,5621,7862,15037,0.151,551
2021-01-12T06:13:37,42.805,6.029,CST-1368DR,5621,7862,15036,0.151,551
2021-01-12T06:16:38,42.805,6.029,CST-1368DR,5621,7863,15038,0.151,551
2021-01-12T06:19:40,42.805,6.029,CST-1368DR,5621,7863,15038,0.151,551
2021-01-12T06:22:41,42.805,6.029,CST-1368DR,5621,7861,15035,0.152,551
2021-01-12T06:25:43,42.805,6.029,CST-1368DR,5621,7863,15038,0.151,551
2021-01-12T06:28:45,42.805,6.029,CST-1368DR,5621,7862,15037,0.151,551
2021-01-12T06:31:46,42.805,6.029,CST-1368DR,5621,7864,15040,0.150,551
2021-01-12T06:34:48,42.805,6.029,CST-1368DR,5621,7862,15037,0.151,551
2021-01-12T06:37:49,42.805,6.029,CST-1368DR,5621,7863,15038,0.151,551
2021-01-12T06:40:51,42.805,6.029,CST-1368DR,5621,7861,15035,0.152,551
2021-01-12T06:43:53,42.805,6.029,CST-1368DR,5621,7862,15036,0.151,551
2021-01-12T06:46:54,42.805,6.029,CST-1368DR,5621,7860,15032,0.152,551
2021-01-12T06:49:56,42.805,6.029,CST-1368DR,5621,7862,15036,0.151,551
2021-01-12T06:52:57,42.805,6.029,CST-1368DR,5621,7861,15035,0.152,551
2021-01-12T06:55:59,42.805,6.029,CST-1368DR,5621,7862,15037,0.151,551
2021-01-12T06:59:00,42.805,6.029,CST-1368DR,5621,7861,15035,0.152,551
2021-01-12T07:02:02,42.805,6.029,CST-1368DR,5621,7862,15036,0.151,551
2021-01-12T07:05:04,42.805,6.029,CST-1368DR,5621,7863,15038,0.151,551
2021-01-12T07:08:05,42.805,6.029,CST-1368DR,5621,7862,15037,0.151,551
2021-01-12T07:11:07,42.805,6.029,CST-1368DR,5621,7863,15038,0.151,551
2021-01-12T07:14:08,42.805,6.029,CST-1368DR,5621,7864,15040,0.150,551
2021-01-12T07:17:10,42.805,6.029,CST-1368DR,5621,7863,15038,0.151,551
2021-01-12T07:20:11,42.805,6.029,CST-1368DR,5621,7864,15040,0.150,551
2021-01-12T07:23:13,42.805,6.029,CST-1368DR,5621,7864,15040,0.150,551
2021-01-12T07:26:15,42.805,6.029,CST-1368DR,5621,7863,15039,0.151,551
2021-01-12T07:29:16,42.805,6.029,CST-1368DR,5621,7862,15037,0.151,551
2021-01-12T07:32:18,42.805,6.029,CST-1368DR,5621,7862,15037,0.151,551
2021-01-12T07:35:19,42.805,6.029,CST-1368DR,5621,7862,15037,0.151,551
2021-01-12T07:38:21,42.805,6.029,CST-1368DR,5621,7864,15040,0.150,551
2021-01-12T07:41:23,42.805,6.029,CST-1368DR,5621,7862,15037,0.151,551
2021-01-12T07:44:24,42.805,6.029,CST-1368DR,5621,7860,15033,0.152,551
2021-01-12T07:47:26,42.805,6.029,CST-1368DR,5621,7863,15039,0.151,551
2021-01-12T07:50:27,42.805,6.029,CST-1368DR,5621,7864,15040,0.150,551
2021-01-12T07:53:29,42.805,6.029,CST-1368DR,5621,7862,15037,0.151,551
2021-01-12T07:56:30,42.805,6.029,CST-1368DR,5621,7862,15036,0.151,551
2021-01-12T07:59:32,42.805,6.029,CST-1368DR,5621,7863,15038,0.151,551
2021-01-12T08:02:34,42.805,6.029,CST-1368DR,5621,7863,15038,0.151,551
2021-01-12T08:05:35,42.805,6.029,CST-1368DR,5621,7863,15038,0.151,551
2021-01-12T08:08:37,42.805,6.029,CST-1368DR,5621,7864,15040,0.150,551
2021-01-12T08:11:38,42.805,6.029,CST-1368DR,5621,7862,15037,0.151,551
2021-01-12T08:14:40,42.805,6.029,CST-1368DR,5621,7863,15038,0.151,551
2021-01-12T08:17:41,42.805,6.029,CST-1368DR,5621,7864,15040,0.150,551
2021-01-12T08:20:43,42.805,6.029,CST-1368DR,5621,7864,15040,0.150,551
2021-01-12T08:23:45,42.805,6.029,CST-1368DR,5621,7861,15035,0.152,551
2021-01-12T08:26:46,42.805,6.029,CST-1368DR,5621,7862,15037,0.151,551
2021-01-12T08:29:48,42.805,6.029,CST-1368DR,5621,7862,15037,0.151,551
2021-01-12T08:32:49,42.805,6.029,CST-1368DR,5621,7860,15032,0.152,551
2021-01-12T08:35:51,42.805,6.029,CST-1368DR,5621,7859,15032,0.152,551
2021-01-12T08:38:53,42.805,6.029,CST-1368DR,5621,7862,15036,0.151,551
2021-01-12T08:41:54,42.805,6.029,CST-1368DR,5621,7863,15038,0.151,551
2021-01-12T08:44:56,42.805,6.029,CST-1368DR,5621,7862,15037,0.151,551
2021-01-12T08:47:57,42.805,6.029,CST-1368DR,5621,7863,15038,0.151,551
2021-01-12T08:50:59,42.805,6.029,CST-1368DR,5621,7862,15037,0.151,551
2021-01-12T08:54:00,42.805,6.029,CST-1368DR,5621,7862,15037,0.151,551
2021-01-12T08:57:02,42.805,6.029,CST-1368DR,5621,7861,15035,0.152,551
2021-01-12T09:00:04,42.805,6.029,CST-1368DR,5621,7863,15039,0.151,551
2021-01-12T09:03:05,42.805,6.029,CST-1368DR,5621,7862,15037,0.151,551
2021-01-12T09:06:07,42.805,6.029,CST-1368DR,5621,7863,15038,0.151,551
2021-01-12T09:09:08,42.805,6.029,CST-1368DR,5621,7860,15033,0.152,551
2021-01-12T09:12:10,42.805,6.029,CST-1368DR,5621,7862,15036,0.151,551
2021-01-12T09:15:12,42.805,6.029,CST-1368DR,5621,7862,15036,0.151,551
2021-01-12T09:18:13,42.805,6.029,CST-1368DR,5621,7862,15036,0.151,551
2021-01-12T09:21:15,42.805,6.029,CST-1368DR,5621,7862,15036,0.151,551
2021-01-12T09:24:16,42.805,6.029,CST-1368DR,5621,7862,15036,0.151,551
2021-01-12T09:27:18,42.805,6.029,CST-1368DR,5621,7863,15039,0.151,551
2021-01-12T09:30:19,42.805,6.029,CST-1368DR,5621,7863,15038,0.151,551
2021-01-12T09:33:21,42.805,6.029,CST-1368DR,5621,7861,15035,0.152,551
2021-01-12T09:36:23,42.805,6.029,CST-1368DR,5621,7861,15035,0.152,551
2021-01-12T09:39:24,42.805,6.029,CST-1368DR,5621,7862,15036,0.151,551
2021-01-12T09:42:26,42.805,6.029,CST-1368DR,5621,7863,15038,0.151,551
2021-01-12T09:45:27,42.805,6.029,CST-1368DR,5621,7862,15036,0.151,551
2021-01-12T09:48:29,42.805,6.029,CST-1368DR,5621,7863,15038,0.151,551
2021-01-12T09:51:30,42.805,6.029,CST-1368DR,5621,7863,15039,0.151,551
2021-01-12T09:54:32,42.805,6.029,CST-1368DR,5621,7859,15031,0.153,551
2021-01-12T09:57:34,42.805,6.029,CST-1368DR,5621,7862,15036,0.151,551
2021-01-12T10:00:35,42.805,6.029,CST-1368DR,5621,7862,15037,0.151,551
2021-01-12T10:03:37,42.805,6.029,CST-1368DR,5621,7861,15034,0.152,551
2021-01-12T10:06:38,42.805,6.029,CST-1368DR,5621,7863,15038,0.151,551
2021-01-12T10:09:40,42.805,6.029,CST-1368DR,5621,7860,15034,0.152,551
2021-01-12T10:12:42,42.805,6.029,CST-1368DR,5621,7862,15037,0.151,551
2021-01-12T10:15:43,42.805,6.029,CST-1368DR,5621,7862,15037,0.151,551
2021-01-12T10:18:45,42.805,6.029,CST-1368DR,5621,7862,15036,0.151,551
2021-01-12T10:21:46,42.805,6.029,CST-1368DR,5621,7862,15036,0.151,551
2021-01-12T10:24:48,42.805,6.029,CST-1368DR,5621,7861,15035,0.152,551
2021-01-12T10:27:49,42.805,6.029,CST-1368DR,5621,7861,15035,0.152,551
2021-01-12T10:30:51,42.805,6.029,CST-1368DR,5621,7861,15035,0.152,551
2021-01-12T10:33:53,42.805,6.029,CST-1368DR,5621,7862,15037,0.151,551
2021-01-12T10:36:54,42.805,6.029,CST-1368DR,5621,7863,15039,0.151,551
2021-01-12T10:39:56,42.805,6.029,CST-1368DR,5621,7862,15037,0.151,551
2021-01-12T10:42:57,42.805,6.029,CST-1368DR,5621,7861,15035,0.152,551
2021-01-12T10:45:59,42.805,6.029,CST-1368DR,5621,7863,15038,0.151,551
2021-01-12T10:49:00,42.805,6.029,CST-1368DR,5621,7862,15037,0.151,551
2021-01-12T10:52:02,42.805,6.029,CST-1368DR,5621,7861,15035,0.152,551
2021-01-12T10:55:04,42.805,6.029,CST-1368DR,5621,7861,15034,0.152,551
2021-01-12T10:58:05,42.805,6.029,CST-1368DR,5621,7860,15032,0.152,551
2021-01-12T11:01:07,42.805,6.029,CST-1368DR,5621,7861,15035,0.152,551
2021-01-12T11:04:08,42.805,6.029,CST-1368DR,5621,7862,15037,0.151,551
2021-01-12T11:07:10,42.805,6.029,CST-1368DR,5621,7862,15037,0.151,551
2021-01-12T11:10:12,42.805,6.029,CST-1368DR,5621,7862,15036,0.151,551
2021-01-12T11:13:13,42.805,6.029,CST-1368DR,5621,7862,15037,0.151,551
2021-01-12T11:16:15,42.805,6.029,CST-1368DR,5621,7861,15035,0.152,551
2021-01-12T11:19:16,42.805,6.029,CST-1368DR,5621,7861,15035,0.152,551
2021-01-12T11:22:18,42.805,6.029,CST-1368DR,5621,7861,15035,0.152,551
2021-01-12T11:25:19,42.805,6.029,CST-1368DR,5621,7863,15038,0.151,551
2021-01-12T11:28:21,42.805,6.029,CST-1368DR,5621,7862,15037,0.151,551
2021-01-12T11:31:23,42.805,6.029,CST-1368DR,5621,7861,15035,0.152,551
2021-01-12T11:34:24,42.805,6.029,CST-1368DR,5621,7861,15035,0.152,551
2021-01-12T11:37:26,42.805,6.029,CST-1368DR,5621,7863,15038,0.151,551
2021-01-12T11:40:27,42.805,6.029,CST-1368DR,5621,7861,15035,0.152,551
2021-01-12T11:43:29,42.805,6.029,CST-1368DR,5621,7862,15037,0.151,551
2021-01-12T11:46:31,42.805,6.029,CST-1368DR,5621,7863,15038,0.151,551
2021-01-12T11:49:32,42.805,6.029,CST-1368DR,5620,7862,15039,0.151,551
2021-01-12T11:52:34,42.805,6.029,CST-1368DR,5620,7860,15036,0.151,551
2021-01-12T11:55:35,42.805,6.029,CST-1368DR,5620,7863,15042,0.150,551
2021-01-12T11:58:37,42.805,6.029,CST-1368DR,5621,7861,15035,0.152,551
2021-01-12T12:01:38,42.805,6.029,CST-1368DR,5620,7863,15041,0.150,551
2021-01-12T12:04:40,42.805,6.029,CST-1368DR,5620,7860,15036,0.151,551
2021-01-12T12:07:42,42.805,6.029,CST-1368DR,5620,7859,15033,0.152,551
2021-01-12T12:10:43,42.805,6.029,CST-1368DR,5620,7860,15036,0.151,551
2021-01-12T12:13:45,42.805,6.029,CST-1368DR,5620,7862,15039,0.151,551
2021-01-12T12:16:46,42.805,6.029,CST-1368DR,5620,7862,15039,0.151,551
2021-01-12T12:19:48,42.805,6.029,CST-1368DR,5620,7861,15037,0.151,551
2021-01-12T12:22:49,42.805,6.029,CST-1368DR,5620,7858,15032,0.152,551
2021-01-12T12:25:51,42.805,6.029,CST-1368DR,5620,7862,15040,0.150,551
2021-01-12T12:28:53,42.805,6.029,CST-1368DR,5620,7862,15039,0.151,551
2021-01-12T12:31:54,42.805,6.029,CST-1368DR,5620,7863,15040,0.150,551
2021-01-12T12:34:56,42.805,6.029,CST-1368DR,5620,7862,15038,0.151,551
2021-01-12T12:37:57,42.805,6.029,CST-1368DR,5620,7862,15039,0.151,551
2021-01-12T12:40:59,42.805,6.029,CST-1368DR,5620,7862,15039,0.151,551
2021-01-12T12:44:01,42.805,6.029,CST-1368DR,5620,7864,15042,0.150,551
2021-01-12T12:47:02,42.805,6.029,CST-1368DR,5620,7862,15038,0.151,551
2021-01-12T12:50:04,42.805,6.029,CST-1368DR,5620,7862,15038,0.151,551
2021-01-12T12:53:05,42.805,6.029,CST-1368DR,5620,7862,15040,0.150,551
2021-01-12T12:56:07,42.805,6.029,CST-1368DR,5620,7863,15040,0.150,551
2021-01-12T12:59:08,42.805,6.029,CST-1368DR,5620,7864,15042,0.150,551
2021-01-12T13:02:10,42.805,6.029,CST-1368DR,5620,7863,15042,0.150,551
2021-01-12T13:05:12,42.805,6.029,CST-1368DR,5620,7863,15040,0.150,551
2021-01-12T13:08:13,42.805,6.029,CST-1368DR,5620,7859,15034,0.152,551
2021-01-12T13:11:15,42.805,6.029,CST-1368DR,5620,7860,15035,0.152,551
2021-01-12T13:14:16,42.805,6.029,CST-1368DR,5620,7862,15040,0.150,550
2021-01-12T13:17:18,42.805,6.029,CST-1368DR,5620,7863,15041,0.150,551
2021-01-12T13:20:19,42.805,6.029,CST-1368DR,5620,7861,15038,0.151,551
2021-01-12T13:23:21,42.805,6.029,CST-1368DR,5620,7859,15033,0.152,551
2021-01-12T13:26:23,42.805,6.029,CST-1368DR,5620,7864,15042,0.150,551
2021-01-12T13:29:24,42.805,6.029,CST-1368DR,5620,7860,15036,0.151,551
2021-01-12T13:32:26,42.805,6.029,CST-1368DR,5620,7862,15038,0.151,551
2021-01-12T13:35:27,42.805,6.029,CST-1368DR,5620,7862,15039,0.151,551
2021-01-12T13:38:29,42.805,6.029,CST-1368DR,5620,7863,15042,0.150,551
2021-01-12T13:41:31,42.805,6.029,CST-1368DR,5620,7857,15030,0.153,551
2021-01-12T13:44:32,42.805,6.029,CST-1368DR,5620,7860,15036,0.151,551
2021-01-12T13:47:34,42.805,6.029,CST-1368DR,5620,7862,15039,0.151,551
2021-01-12T13:50:35,42.805,6.029,CST-1368DR,5620,7862,15039,0.151,551
2021-01-12T13:53:37,42.805,6.029,CST-1368DR,5620,7861,15037,0.151,551
2021-01-12T13:56:38,42.805,6.029,CST-1368DR,5620,7862,15039,0.151,551
2021-01-12T13:59:40,42.805,6.029,CST-1368DR,5620,7862,15039,0.151,551
2021-01-12T14:02:42,42.805,6.029,CST-1368DR,5620,7863,15042,0.150,551
2021-01-12T14:05:43,42.805,6.029,CST-1368DR,5620,7863,15041,0.150,551
2021-01-12T14:08:45,42.805,6.029,CST-1368DR,5620,7862,15039,0.151,551
2021-01-12T14:11:46,42.805,6.029,CST-1368DR,5620,7862,15038,0.151,551
2021-01-12T14:14:48,42.805,6.029,CST-1368DR,5620,7861,15038,0.151,551
2021-01-12T14:17:50,42.805,6.029,CST-1368DR,5620,7861,15038,0.151,551
2021-01-12T14:20:51,42.805,6.029,CST-1368DR,5620,7862,15039,0.151,551
2021-01-12T14:23:53,42.805,6.029,CST-1368DR,5620,7862,15038,0.151,551
2021-01-12T14:26:54,42.805,6.029,CST-1368DR,5620,7862,15039,0.151,551
2021-01-12T14:29:56,42.805,6.029,CST-1368DR,5620,7862,15039,0.151,551
2021-01-12T14:32:57,42.805,6.029,CST-1368DR,5620,7861,15038,0.151,551
2021-01-12T14:35:59,42.805,6.029,CST-1368DR,5620,7863,15042,0.150,551
2021-01-12T14:39:01,42.805,6.029,CST-1368DR,5620,7863,15041,0.150,551
2021-01-12T14:42:02,42.805,6.029,CST-1368DR,5620,7861,15038,0.151,550
2021-01-12T14:45:04,42.805,6.029,CST-1368DR,5620,7858,15031,0.153,551
2021-01-12T14:48:05,42.805,6.029,CST-1368DR,5620,7860,15036,0.151,550
2021-01-12T14:51:07,42.805,6.029,CST-1368DR,5620,7861,15037,0.151,551
2021-01-12T14:54:08,42.805,6.029,CST-1368DR,5620,7862,15038,0.151,551
2021-01-12T14:57:10,42.805,6.029,CST-1368DR,5620,7862,15038,0.151,551
2021-01-12T15:00:12,42.805,6.029,CST-1368DR,5620,7862,15038,0.151,551
2021-01-12T15:03:13,42.805,6.029,CST-1368DR,5620,7861,15037,0.151,551
2021-01-12T15:06:15,42.805,6.029,CST-1368DR,5620,7862,15040,0.150,551
2021-01-12T15:09:16,42.805,6.029,CST-1368DR,5620,7862,15040,0.150,551
2021-01-12T15:12:18,42.805,6.029,CST-1368DR,5620,7861,15038,0.151,551
2021-01-12T15:15:20,42.805,6.029,CST-1368DR,5620,7862,15039,0.151,551
2021-01-12T15:18:21,42.805,6.029,CST-1368DR,5620,7862,15039,0.151,551
2021-01-12T15:21:23,42.805,6.029,CST-1368DR,5620,7863,15040,0.150,551
2021-01-12T15:24:24,42.805,6.029,CST-1368DR,5620,7862,15039,0.151,551
2021-01-12T15:27:26,42.805,6.029,CST-1368DR,5620,7862,15039,0.151,551
2021-01-12T15:30:27,42.805,6.029,CST-1368DR,5620,7862,15039,0.151,551
2021-01-12T15:33:29,42.805,6.029,CST-1368DR,5620,7863,15040,0.150,551
2021-01-12T15:36:31,42.805,6.029,CST-1368DR,5620,7857,15029,0.153,551
2021-01-12T15:39:32,42.805,6.029,CST-1368DR,5620,7840,14997,0.162,551
2021-01-12T15:42:34,42.805,6.029,CST-1368DR,5620,7843,15004,0.160,551
2021-01-12T15:45:35,42.805,6.029,CST-1368DR,5620,7848,15012,0.158,550
2021-01-12T15:48:37,42.805,6.029,CST-1368DR,5620,7856,15027,0.154,551
2021-01-12T15:51:38,42.805,6.029,CST-1368DR,5620,7858,15031,0.153,551
2021-01-12T15:54:40,42.805,6.029,CST-1368DR,5620,7858,15032,0.152,551
2021-01-12T15:57:42,42.805,6.029,CST-1368DR,5620,7861,15038,0.151,551
2021-01-12T16:00:43,42.805,6.029,CST-1368DR,5620,7862,15039,0.151,551
2021-01-12T16:03:45,42.805,6.029,CST-1368DR,5620,7862,15040,0.150,551
2021-01-12T16:06:46,42.805,6.029,CST-1368DR,5620,7862,15039,0.151,551
2021-01-12T16:09:48,42.805,6.029,CST-1368DR,5620,7861,15038,0.151,551
2021-01-12T16:12:50,42.805,6.029,CST-1368DR,5620,7861,15037,0.151,551
2021-01-12T16:15:51,42.805,6.029,CST-1368DR,5620,7862,15040,0.150,551
2021-01-12T16:18:53,42.805,6.029,CST-1368DR,5620,7862,15040,0.150,551
2021-01-12T16:21:54,42.805,6.029,CST-1368DR,5620,7860,15035,0.152,551
2021-01-12T16:24:56,42.805,6.029,CST-1368DR,5620,7862,15040,0.150,551
2021-01-12T16:27:57,42.805,6.029,CST-1368DR,5620,7862,15038,0.151,551
2021-01-12T16:30:59,42.805,6.029,CST-1368DR,5620,7861,15038,0.151,551
2021-01-12T16:34:01,42.805,6.029,CST-1368DR,5620,7861,15037,0.151,551
2021-01-12T16:37:02,42.805,6.029,CST-1368DR,5620,7861,15037,0.151,551
2021-01-12T16:40:04,42.805,6.029,CST-1368DR,5620,7862,15040,0.150,551
2021-01-12T16:43:05,42.805,6.029,CST-1368DR,5620,7862,15040,0.150,551
2021-01-12T16:46:07,42.805,6.029,CST-1368DR,5620,7854,15024,0.155,551
2021-01-12T16:49:09,42.805,6.029,CST-1368DR,5620,7857,15029,0.153,551
2021-01-12T16:52:10,42.805,6.029,CST-1368DR,5620,7861,15038,0.151,551